Flag for Dominican Republic Weather past 2 weeks in Punta Cana, Dominican Republic

Now
86 °F

Passing clouds.


Feels Like: 95 °F
Forecast: N/A
Wind: 5 mph from South

Location: Punta Cana

Current Time: Oct 1, 2014 at 5:51:15 PM

Latest Report: Oct 1, 2014 at 5:00 PM


Visibility: N/A

Pressure: 29.95 "Hg

Humidity: 70%

Dew point: 75 °F

Location of Punta CanaLocation

Historic Weather in Punta Cana — Graph

°F

Punta Cana temperature yesterday

Maximum temperature yesterday: 88 °F (at 1:00 PM)
Minimum temperature yesterday: 79 °F (at 4:00 AM)
Average temperature yesterday: 83 °F

Past Weeks' High & Low Weather Summary

 TemperatureHumidityPressure
High91 °F (Sep 21, 3:00 PM)100% (Sep 18, 2:00 AM)30.07 "Hg (Sep 18, 2:00 AM)
Low73 °F (Sep 18, 2:00 AM)62% (Sep 16, 5:00 PM)29.83 "Hg (Sep 26, 4:00 PM)
Average81 °F83%29.95 "Hg
* Reported Sep 16 4:00 PM — Oct 1 4:00 PM, Punta Cana, Weather by CustomWeather, © 2014

Note: Actual official high and low records may vary slightly from our data, if they occured in-between our weather recording intervals... More about our weather records

Advertising

Punta Cana weather history for previous 24 hours

 ConditionsComfort  
Time TempWeatherWind HumidityBarometerVisibility
4:00 PM
Oct 1
86 °FPassing clouds.7 mph70%29.95 "HgN/A
3:00 PM88 °FPassing clouds.8 mph66%29.95 "HgN/A
2:00 PM88 °FPassing clouds.9 mph66%29.98 "HgN/A
1:00 PM88 °FPassing clouds.9 mph70%29.98 "HgN/A
12:00 PM88 °FScattered clouds.8 mph70%30.01 "HgN/A
11:00 AM88 °FPassing clouds.5 mph70%30.04 "HgN/A
10:00 AM86 °FScattered clouds.8 mph70%30.04 "HgN/A
9:00 AM86 °FPassing clouds.7 mph75%30.04 "HgN/A
8:00 AM82 °FPassing clouds.7 mph79%30.01 "HgN/A
7:00 AM81 °FPassing clouds.7 mph89%29.98 "HgN/A
6:00 AM81 °FPassing clouds.6 mph84%29.98 "HgN/A
5:00 AM77 °FPassing clouds.No wind94%29.98 "HgN/A
4:00 AM75 °FPassing clouds.2 mph94%29.98 "HgN/A
3:00 AM77 °FPassing clouds.3 mph94%29.95 "HgN/A
2:00 AM79 °FPassing clouds.5 mph94%29.98 "HgN/A
1:00 AM79 °FPassing clouds.No wind94%29.98 "HgN/A
12:00 AM79 °FPassing clouds.No wind89%29.98 "HgN/A
11:00 PM
Sep 30
81 °FPassing clouds.No wind89%29.98 "HgN/A
10:00 PM81 °FPassing clouds.No wind89%29.98 "HgN/A
9:00 PM79 °FPassing clouds.No wind89%29.98 "HgN/A
8:00 PM81 °FPassing clouds.5 mph84%29.98 "HgN/A
7:00 PM81 °FPassing clouds.5 mph84%29.95 "HgN/A
6:00 PM84 °FScattered clouds.5 mph74%29.95 "HgN/A
5:00 PM86 °FScattered clouds.10 mph70%29.95 "HgN/A
Weather by CustomWeather, © 2014

See weather overviewHow to use our weather pages